Wind_Speed
50 49 51 52 52 51 49 48 47 45 43 40 37 34 31 30 29 29 29 29 28 29 28 27 27 26 23 20 12 15 14 16 16 17 13 12 13 15 19 18 18 25 25 24 28 26 27
56 53 50 51 53 51 51 51 49 47 45 43 41 37 34 33 31 30 30 30 29 29 30 29 28 27 24 22 11 16 14 15 15 15 15 16 18 18 25 22 22 24 26 26 28 30 32
55 56 54 51 50 52 52 51 51 50 48 45 43 40 36 34 35 31 31 31 30 29 31 30 30 29 28 18 18 17 20 19 17 16 16 17 21 23 26 24 21 24 30 30 28 30 33
57 57 55 56 52 50 51 52 51 51 50 48 45 43 40 37 35 34 32 32 32 31 31 32 31 31 31 21 20 21 23 18 19 18 19 17 20 21 23 24 26 26 24 30 21 18 21
63 64 59 62 62 57 53 51 53 52 52 50 48 45 43 39 38 35 34 34 35 34 32 34 34 32 30 22 15 17 15 14 13 17 17 16 16 17 18 20 23 20 25 26 28 9 15
62 66 61 56 55 60 58 54 53 54 53 52 50 47 45 41 39 37 36 36 36 36 36 36 37 34 26 18 12 15 20 16 16 15 18 17 16 17 22 18 23 22 18 21 20 20 26
69 63 61 59 62 56 59 60 55 56 55 53 51 49 46 44 42 40 38 38 37 40 40 38 32 29 19 27 28 27 24 23 21 22 24 22 20 30 24 20 21 21 24 26 24 23 33
85 78 64 61 66 64 53 58 59 55 55 54 52 50 48 47 45 43 42 42 39 42 44 43 42 46 41 35 39 30 26 28 27 29 24 27 32 30 29 29 28 25 28 32 33 30 34
90 85 80 66 65 66 60 55 62 57 57 55 54 52 50 50 48 48 45 41 36 37 46 57 51 50 45 43 46 39 33 36 35 36 35 38 40 28 24 25 29 32 33 33 33 34 33
89 90 85 77 66 59 66 67 52 62 58 55 55 53 54 53 51 51 50 38 36 33 36 50 51 49 36 37 51 43 40 43 43 42 41 38 37 35 31 33 26 34 28 30 26 26 19
81 85 89 86 78 62 60 64 51 54 61 55 55 57 58 53 53 55 46 37 38 31 5 15 16 16 12 16 16 11 9 36 46 41 35 33 22 19 18 17 23 35 29 26 21 19 21
73 81 85 88 81 86 62 59 51 57 51 58 64 61 55 54 57 54 44 40 34 17 10 12 12 17 19 16 19 16 18 27 32 37 37 39 32 26 26 20 14 14 16 17 19 20 14
65 70 82 87 90 79 69 59 49 51 47 49 51 65 57 56 57 51 46 40 24 13 16 19 21 17 18 19 24 19 21 31 23 22 29 34 38 36 34 31 26 23 16 3 3 4 6
60 62 67 82 91 91 88 65 50 46 47 50 41 54 48 60 52 52 43 39 24 22 39 23 8 16 22 22 27 26 18 21 21 19 12 11 3 19 20 18 15 13 18 11 6 4 3
61 62 66 60 87 96 95 88 67 49 46 51 35 52 48 50 50 57 50 40 36 36 34 36 28 19 20 17 17 24 28 21 21 25 20 9 13 15 12 6 13 9 9 6 1 3 3
61 63 67 69 69 86 84 82 61 53 44 47 33 48 41 45 54 54 52 52 39 41 34 34 35 27 26 25 25 27 20 25 23 21 23 16 8 14 12 7 5 7 6 4 4 2 5
61 62 64 69 64 68 77 77 73 76 59 49 39 31 34 56 47 52 52 45 47 40 39 38 37 34 32 35 30 28 18 14 22 21 26 19 18 14 17 7 12 9 8 5 6 8 4
66 67 63 66 65 58 72 59 68 58 54 46 47 37 47 59 49 52 58 53 49 47 40 33 34 34 33 35 28 28 21 21 17 13 15 16 9 13 19 19 15 17 19 13 7 5 13
64 65 62 59 61 54 64 53 59 60 52 47 56 56 52 57 49 56 41 39 38 39 38 36 33 33 31 33 21 24 23 20 20 17 13 20 11 7 5 6 10 14 14 9 7 15 20
74 66 62 58 53 52 60 55 54 52 48 60 68 39 54 55 52 54 46 39 33 28 33 35 30 29 33 26 20 25 21 15 14 17 19 18 19 18 14 5 9 17 18 21 27 16 22
61 67 61 54 48 56 52 54 56 57 53 67 51 35 46 56 49 50 45 38 36 27 17 22 23 21 25 20 21 17 17 14 13 15 20 21 21 23 26 20 23 30 33 31 25 35 30
52 49 51 48 50 56 76 75 62 54 56 63 56 48 48 44 45 40 38 36 37 32 32 23 24 20 19 17 22 22 22 23 21 21 16 17 11 13 23 19 22 34 40 40 39 40 44
51 46 45 53 73 77 66 58 63 62 55 52 55 54 51 48 37 40 38 35 36 29 20 17 17 18 20 20 20 21 22 25 23 26 21 21 16 13 23 15 19 26 35 26 20 24 29
59 63 71 83 81 74 70 65 66 63 52 45 46 50 47 44 38 36 32 33 26 22 20 21 20 19 17 16 16 17 19 19 21 22 23 25 23 18 17 9 2 19 21 20 22 23 27
59 72 73 67 48 46 41 35 32 31 29 28 26 37 44 45 38 32 27 23 21 19 18 24 23 20 20 16 13 11 13 18 20 17 20 20 25 13 8 9 17 32 14 18 14 29 33
50 49 44 39 34 34 32 32 28 23 20 17 24 21 26 33 24 23 25 23 24 24 24 21 19 19 19 16 10 7 5 4 4 3 5 9 15 22 14 5 6 23 16 20 18 25 23
43 42 38 37 35 32 27 23 21 23 23 19 26 21 22 27 27 25 30 26 24 24 23 21 21 18 17 14 14 8 8 7 7 7 9 8 7 23 29 16 17 28 18 18 7 14 22
28 26 26 24 21 18 19 21 21 21 24 19 27 23 17 27 32 24 26 25 23 20 21 20 18 16 13 12 8 7 6 9 10 16 12 10 8 13 15 19 14 16 16 11 17 18 18
26 24 22 22 22 21 22 23 22 22 19 19 19 23 20 19 28 22 19 17 15 14 17 17 16 8 12 9 10 7 10 8 11 12 11 10 10 11 13 10 12 8 10 14 14 20 21
Wind_Direction
253 254 253 251 250 250 248 247 248 249 250 250 251 253 256 257 258 262 265 268 270 276 279 281 284 286 283 269 290 293 289 284 275 264 263 251 256 267 269 264 253 246 252 242 243 245 256
252 251 251 251 251 249 251 249 248 248 249 250 250 252 253 258 257 259 262 267 270 274 277 280 282 282 278 268 266 290 282 280 269 261 258 258 262 255 265 267 261 268 259 259 249 243 250
252 251 252 249 250 250 248 249 249 248 248 248 249 250 251 254 259 258 261 265 267 270 274 276 279 280 273 264 272 272 297 288 270 261 260 262 262 259 264 270 268 266 269 267 262 256 254
249 247 248 250 249 250 251 248 248 249 248 248 248 248 249 251 255 258 259 262 265 266 269 272 274 278 275 276 269 277 278 284 276 269 269 261 258 257 263 270 265 267 265 272 280 281 270
246 243 246 250 248 248 249 249 247 246 247 246 246 247 247 249 251 254 257 258 262 263 266 270 272 275 282 280 282 270 269 286 275 266 260 262 254 259 260 261 268 268 266 269 289 249 305
242 243 241 241 250 247 246 247 248 245 244 243 244 244 245 247 250 252 254 256 259 263 263 264 267 273 274 274 255 274 280 268 273 264 269 265 265 257 257 246 252 274 270 287 281 248 299
236 242 238 241 250 248 250 246 243 244 242 243 241 242 243 244 248 249 250 255 257 261 259 261 259 258 248 258 272 279 275 275 271 265 260 256 249 261 274 268 269 275 272 268 266 274 295
239 239 239 241 245 244 249 244 244 242 242 240 240 240 240 242 243 246 248 250 254 261 269 264 261 262 260 257 260 252 262 260 261 267 266 260 250 267 283 279 270 264 265 272 282 285 285
239 239 237 238 239 241 243 248 249 237 240 238 239 238 238 239 241 243 245 249 254 267 268 275 267 264 263 259 262 256 248 255 261 263 257 263 264 268 266 255 258 255 258 270 279 281 280
242 237 235 234 233 233 240 248 242 238 235 238 237 235 236 236 239 241 242 245 252 261 274 272 276 274 269 258 258 254 241 244 250 253 256 266 266 260 262 249 252 260 254 266 269 276 280
243 240 234 234 235 240 234 237 241 245 235 230 237 236 235 235 242 241 246 246 254 257 264 268 237 246 222 241 252 250 201 233 241 245 243 242 252 250 229 244 249 255 256 251 265 283 289
245 240 236 232 230 235 229 228 233 238 244 235 230 235 235 233 236 240 238 240 244 245 239 248 224 228 237 238 236 221 203 217 238 239 236 244 238 228 239 240 259 259 256 269 276 277 264
246 242 237 229 224 228 223 229 226 230 239 239 241 235 229 235 237 239 238 236 237 210 231 251 241 229 227 227 218 216 196 205 204 206 233 243 246 247 251 261 252 245 250 316 285 175 240
248 243 237 230 225 224 230 225 226 232 233 231 250 235 239 233 232 231 234 228 216 237 231 241 253 231 224 211 218 206 188 201 217 230 232 223 168 213 226 232 212 215 221 203 213 201 290
247 245 235 230 223 224 225 232 234 225 223 234 232 227 233 236 229 233 229 215 223 234 241 234 227 206 215 222 214 206 210 215 221 224 225 213 189 187 193 175 182 176 166 201 219 283 275
243 242 237 230 227 221 220 222 223 217 226 219 215 226 240 243 228 231 225 219 234 229 227 234 226 225 206 202 203 193 192 207 214 219 211 222 202 212 218 233 218 202 182 168 135 250 239
239 235 235 232 228 220 214 218 221 230 226 223 212 224 246 229 228 221 211 214 226 232 232 231 218 216 211 198 204 195 194 196 211 213 227 230 222 227 239 236 216 209 201 177 192 214 207
238 233 228 231 223 218 207 207 217 215 216 226 220 212 228 220 213 218 221 221 226 225 224 203 216 207 191 193 192 198 194 202 207 211 210 220 231 239 253 239 250 272 273 264 209 226 230
227 225 216 217 219 212 199 201 210 217 219 206 211 206 201 199 202 210 209 207 209 207 210 205 201 195 184 176 175 182 189 197 211 219 227 232 239 264 248 252 242 237 227 200 262 281 252
227 212 209 210 214 200 190 203 210 211 213 208 202 171 173 190 200 206 196 198 196 197 206 199 192 183 182 180 189 194 193 197 227 234 242 238 241 248 252 233 252 261 241 249 278 272 282
199 188 198 203 198 186 196 205 206 208 210 204 197 186 186 187 195 200 200 193 180 159 178 187 172 194 179 173 181 174 190 192 208 233 245 247 250 255 261 260 261 270 273 271 267 271 264
149 168 188 184 182 189 191 199 204 200 206 221 199 196 186 196 192 190 183 179 175 165 164 168 180 182 189 198 200 185 198 207 219 231 236 245 248 251 262 264 271 274 273 275 276 280 275
145 151 157 167 173 188 196 201 198 207 206 217 215 206 206 180 183 184 184 171 175 177 168 186 184 188 197 202 206 212 221 228 224 225 226 234 242 260 274 280 275 276 276 286 296 296 289
140 148 158 154 147 151 162 172 182 188 198 193 190 193 175 160 170 171 170 171 163 171 182 183 189 183 185 196 205 216 224 234 243 248 247 255 260 262 270 285 303 267 286 299 301 297 298
109 126 138 137 121 131 135 141 149 170 179 192 180 173 164 148 160 159 165 164 152 162 171 160 169 194 192 196 212 227 257 265 263 258 249 245 245 232 237 224 278 275 272 323 312 306 304
97 104 109 107 104 106 104 94 92 93 103 134 142 152 160 154 154 158 155 161 170 162 152 162 170 192 204 210 225 224 215 191 236 188 186 217 237 231 216 221 235 272 290 306 306 295 291
99 102 104 109 115 116 106 97 99 106 110 122 122 124 144 152 139 146 161 166 162 176 177 185 192 201 213 224 216 220 220 206 233 230 222 226 267 235 243 235 262 272 265 292 291 292 311
100 107 110 112 114 114 109 114 117 122 125 132 134 141 157 154 152 167 173 183 183 193 198 198 204 216 212 207 217 216 218 223 249 257 265 253 246 248 257 238 250 264 264 276 302 308 313
97 98 99 102 106 110 116 122 124 124 131 141 150 154 156 157 154 159 168 180 191 193 189 187 199 209 210 198 208 212 217 226 253 263 260 257 263 275 254 244 254 267 313 310 280 305 316
Height
3069 3073 3076 3079 3083 3087 3090 3093 3097 3100 3103 3106 3109 3111 3113 3113 3113 3115 3116 3116 3116 3116 3115 3114 3113 3112 3115 3115 3119 3116 3116 3117 3116 3116 3117 3117 3117 3117 3116 3116 3116 3113 3114 3114 3114 3115 3114
3056 3060 3063 3067 3071 3075 3080 3083 3087 3090 3094 3097 3101 3103 3105 3107 3107 3108 3110 3111 3111 3111 3110 3109 3107 3107 3108 3110 3114 3111 3111 3113 3113 3112 3113 3113 3113 3114 3110 3111 3112 3111 3109 3108 3107 3107 3107
3042 3047 3052 3055 3060 3063 3068 3072 3077 3081 3084 3088 3092 3096 3098 3100 3102 3102 3104 3105 3105 3104 3103 3102 3101 3100 3101 3104 3107 3107 3106 3107 3108 3108 3108 3109 3108 3108 3107 3106 3107 3106 3104 3102 3103 3104 3103
3029 3032 3037 3043 3048 3052 3057 3061 3066 3070 3074 3079 3082 3087 3090 3092 3094 3096 3097 3098 3099 3097 3096 3096 3095 3094 3093 3098 3101 3102 3101 3101 3101 3101 3101 3103 3103 3103 3102 3103 3102 3102 3101 3096 3097 3100 3100
3011 3017 3022 3028 3033 3039 3044 3049 3054 3059 3064 3068 3072 3077 3081 3084 3086 3088 3090 3091 3091 3090 3090 3089 3090 3090 3088 3091 3094 3095 3096 3096 3096 3096 3097 3097 3098 3099 3099 3098 3098 3097 3095 3096 3093 3094 3093
2996 3000 3006 3012 3017 3025 3030 3036 3041 3047 3051 3057 3061 3066 3071 3075 3078 3081 3082 3083 3083 3083 3083 3083 3083 3086 3087 3086 3086 3088 3089 3091 3091 3091 3092 3092 3093 3093 3090 3094 3093 3093 3093 3092 3092 3089 3088
2978 2987 2989 2996 3004 3009 3016 3021 3026 3034 3039 3045 3050 3055 3061 3065 3069 3071 3074 3075 3078 3074 3074 3077 3076 3075 3078 3081 3079 3081 3082 3083 3086 3087 3087 3088 3088 3085 3087 3088 3089 3089 3088 3086 3086 3085 3083
2958 2969 2975 2979 2988 2997 3002 3007 3013 3021 3027 3033 3039 3044 3050 3055 3057 3061 3064 3065 3066 3066 3061 3065 3065 3061 3068 3074 3067 3073 3078 3078 3079 3080 3081 3081 3076 3081 3083 3082 3083 3083 3080 3079 3079 3080 3080
2935 2947 2959 2964 2973 2980 2990 2994 3000 3006 3014 3020 3027 3034 3039 3043 3047 3049 3054 3059 3059 3061 3054 3045 3051 3050 3057 3060 3055 3063 3070 3068 3069 3071 3074 3071 3070 3076 3077 3075 3077 3075 3075 3076 3075 3072 3073
2912 2924 2937 2947 2957 2962 2973 2982 2986 2992 3000 3008 3015 3021 3025 3030 3037 3038 3040 3053 3054 3058 3051 3030 3037 3029 3039 3044 3035 3049 3056 3060 3060 3061 3066 3061 3063 3065 3068 3068 3072 3066 3071 3070 3069 3069 3068
2889 2901 2916 2927 2939 2949 2957 2968 2972 2978 2986 2992 3001 3006 3010 3021 3025 3026 3039 3044 3046 3051 3046 3032 3026 3030 3032 3035 3037 3038 3046 3049 3047 3053 3059 3050 3056 3060 3058 3060 3063 3060 3065 3065 3064 3063 3063
2867 2877 2891 2906 2921 2934 2942 2950 2958 2966 2971 2978 2983 2990 3003 3006 3009 3015 3029 3033 3040 3045 3032 3024 3022 3024 3027 3028 3030 3032 3037 3041 3043 3046 3047 3046 3051 3052 3052 3056 3059 3061 3059 3060 3058 3058 3055
2849 2855 2865 2881 2899 2913 2926 2937 2944 2952 2959 2966 2971 2974 2986 2994 2998 3008 3017 3026 3032 3026 3019 3016 3017 3019 3021 3023 3027 3027 3031 3032 3036 3040 3039 3042 3041 3046 3050 3049 3051 3052 3054 3055 3055 3055 3049
2831 2837 2845 2858 2875 2892 2907 2921 2932 2940 2946 2955 2960 2964 2969 2977 2988 2994 3004 3014 3010 3003 3008 3010 3015 3015 3017 3020 3021 3025 3028 3029 3032 3035 3035 3035 3039 3040 3038 3040 3042 3043 3046 3048 3048 3050 3047
2812 2819 2827 2836 2851 2869 2886 2900 2916 2928 2931 2941 2948 2952 2953 2962 2975 2982 2991 2988 2987 2993 3001 3001 3011 3009 3011 3014 3017 3021 3023 3027 3026 3026 3030 3030 3035 3034 3034 3035 3038 3040 3041 3044 3046 3048 3048
2790 2799 2808 2818 2829 2846 2868 2887 2901 2912 2922 2926 2933 2943 2948 2955 2963 2970 2974 2972 2979 2986 2987 2991 2996 2998 3001 3007 3011 3012 3015 3019 3018 3018 3021 3023 3030 3029 3030 3032 3033 3036 3040 3042 3044 3048 3044
2767 2777 2788 2800 2813 2828 2850 2870 2887 2896 2910 2916 2926 2929 2941 2947 2954 2957 2958 2964 2971 2974 2979 2984 2985 2987 2989 2995 3001 3004 3007 3013 3014 3011 3016 3018 3022 3026 3026 3026 3030 3035 3035 3038 3040 3042 3041
2741 2754 2767 2782 2799 2815 2835 2857 2869 2884 2894 2903 2910 2915 2929 2935 2940 2944 2950 2956 2960 2964 2967 2972 2977 2977 2983 2988 2994 2999 3001 3005 3006 3006 3010 3014 3015 3017 3021 3024 3026 3029 3030 3033 3032 3034 3032
2711 2730 2749 2767 2787 2805 2825 2843 2857 2864 2879 2890 2896 2905 2913 2922 2922 2931 2941 2947 2951 2954 2959 2965 2971 2973 2976 2983 2990 2996 2998 3000 3002 3003 3003 3007 3009 3013 3015 3020 3020 3020 3022 3025 3027 3028 3024
2668 2706 2734 2757 2780 2796 2815 2831 2844 2857 2869 2878 2879 2890 2899 2911 2915 2926 2930 2938 2944 2953 2957 2960 2967 2970 2972 2976 2982 2988 2992 2994 2996 2998 3001 3004 3007 3011 3010 3015 3016 3016 3016 3020 3021 3021 3020
2640 2693 2728 2757 2777 2794 2808 2827 2834 2847 2859 2859 2866 2875 2880 2899 2912 2922 2926 2931 2939 2944 2953 2957 2961 2967 2971 2974 2977 2984 2989 2992 2994 2996 2999 3002 3002 3005 3005 3007 3009 3009 3007 3011 3011 3012 3013
2665 2706 2737 2763 2779 2792 2796 2810 2818 2835 2844 2853 2858 2869 2881 2894 2909 2914 2923 2928 2933 2938 2944 2954 2959 2965 2968 2973 2976 2980 2987 2990 2992 2993 2994 2995 2999 3000 2999 3002 3004 3000 3000 3004 3004 3002 2999
2698 2720 2746 2769 2768 2778 2798 2805 2818 2828 2841 2849 2857 2866 2879 2889 2903 2914 2920 2921 2930 2936 2946 2953 2957 2964 2967 2972 2974 2978 2983 2986 2988 2989 2991 2994 2995 2998 2991 2998 2998 2992 2989 2991 2992 2991 2989
2723 2735 2745 2757 2768 2780 2794 2810 2820 2830 2841 2852 2857 2863 2874 2886 2907 2908 2916 2923 2929 2934 2941 2949 2953 2957 2963 2967 2972 2977 2980 2983 2983 2984 2985 2987 2993 2996 2991 2993 2997 2982 2982 2983 2983 2982 2978
2754 2759 2769 2780 2789 2803 2815 2825 2832 2840 2852 2857 2862 2870 2877 2889 2898 2908 2916 2924 2928 2934 2943 2945 2950 2956 2958 2964 2970 2973 2978 2978 2977 2976 2977 2979 2985 2989 2990 2988 2984 2977 2976 2977 2976 2972 2972
2784 2789 2795 2801 2806 2815 2823 2832 2839 2850 2854 2864 2871 2878 2884 2890 2902 2908 2913 2922 2926 2934 2944 2945 2948 2956 2959 2959 2965 2970 2971 2971 2974 2974 2973 2975 2978 2986 2984 2984 2983 2974 2974 2973 2973 2966 2966
2805 2810 2814 2819 2824 2830 2836 2845 2850 2857 2864 2870 2872 2881 2888 2892 2902 2909 2914 2919 2926 2934 2940 2942 2946 2953 2955 2957 2962 2962 2965 2969 2971 2971 2971 2971 2975 2976 2975 2975 2972 2969 2971 2967 2968 2968 2961
2822 2824 2828 2832 2835 2840 2845 2850 2855 2861 2867 2873 2876 2885 2893 2895 2904 2910 2914 2920 2924 2929 2934 2939 2947 2949 2951 2953 2956 2957 2960 2966 2969 2965 2964 2967 2969 2969 2970 2968 2966 2967 2965 2966 2965 2959 2955
2835 2837 2841 2843 2846 2849 2854 2858 2863 2869 2874 2878 2881 2888 2895 2899 2903 2910 2914 2919 2925 2928 2932 2937 2940 2942 2947 2950 2952 2954 2959 2960 2961 2962 2962 2962 2963 2963 2964 2957 2956 2957 2956 2955 2957 2953 2950